| time (UTC) | temp F | wind direction | speed knots | gust knots | rain 1hr in | rain 24hr in | rain mn in | humidity % | barometer mb |
| 20260507083502 | 53 | 336 | 0.0 | 4.3 | 0.00 | 0.09 | 0.00 | 81 | 1016.9 |
| 20260507083002 | 53 | 66 | 0.9 | 4.3 | 0.00 | 0.09 | 0.00 | 81 | 1016.9 |
| 20260507082601 | 53 | 326 | 0.0 | 4.3 | 0.00 | 0.09 | 0.00 | 82 | 1016.9 |
| 20260507082100 | 53 | 13 | 0.0 | 4.3 | 0.00 | 0.09 | 0.00 | 83 | 1016.8 |
| 20260507081604 | 53 | 280 | 0.9 | 2.6 | 0.00 | 0.09 | 0.00 | 82 | 1016.8 |
| 20260507081050 | 53 | 333 | 0.0 | 2.6 | 0.00 | 0.09 | 0.00 | 84 | 1016.8 |
| 20260507080550 | 52 | 305 | 0.9 | 2.6 | 0.00 | 0.09 | 0.00 | 84 | 1016.7 |
| 20260507080042 | 52 | 71 | 0.0 | 2.6 | 0.00 | 0.09 | 0.00 | 85 | 1016.7 |
| 20260507075538 | 51 | 83 | 0.0 | 3.5 | 0.00 | 0.13 | 0.00 | 86 | 1016.7 |
| 20260507075032 | 50 | 73 | 0.0 | 3.5 | 0.00 | 0.13 | 0.00 | 86 | 1016.7 |
| 20260507074549 | 50 | 302 | 0.0 | 2.6 | 0.00 | 0.13 | 0.00 | 87 | 1016.7 |
| 20260507074028 | 49 | 291 | 0.9 | 2.6 | 0.00 | 0.13 | 0.00 | 87 | 1016.7 |
| 20260507073519 | 49 | 325 | 0.0 | 2.6 | 0.00 | 0.13 | 0.00 | 88 | 1016.6 |
| 20260507073017 | 49 | 325 | 0.0 | 2.6 | 0.00 | 0.13 | 0.00 | 88 | 1016.6 |
| 20260507072510 | 49 | 325 | 0.0 | 2.6 | 0.00 | 0.13 | 0.00 | 88 | 1016.6 |
| 20260507072008 | 49 | 324 | 1.7 | 2.6 | 0.00 | 0.13 | 0.00 | 88 | 1016.5 |
| 20260507071507 | 48 | 290 | 0.0 | 2.6 | 0.00 | 0.13 | 0.00 | 88 | 1016.5 |
| 20260507071009 | 48 | 329 | 0.9 | 3.5 | 0.00 | 0.13 | 0.00 | 88 | 1016.6 |
| 20260507070505 | 48 | 324 | 1.7 | 3.5 | 0.00 | 0.13 | 0.00 | 88 | 1016.5 |
| 20260507070004 | 48 | 304 | 0.9 | 2.6 | 0.00 | 0.14 | 0.00 | 88 | 1016.5 |
| 20260507065501 | 48 | 323 | 0.0 | 2.6 | 0.00 | 0.14 | 0.00 | 88 | 1016.4 |
| 20260507065004 | 48 | 323 | 0.0 | 1.7 | 0.00 | 0.14 | 0.00 | 88 | 1016.4 |
| 20260507064601 | 48 | 323 | 0.0 | 2.6 | 0.00 | 0.14 | 0.00 | 88 | 1016.4 |
| 20260507064054 | 48 | 323 | 0.0 | 2.6 | 0.00 | 0.14 | 0.00 | 88 | 1016.3 |
| 20260507063548 | 48 | 327 | 0.0 | 2.6 | 0.00 | 0.14 | 0.00 | 88 | 1016.3 |
| 20260507063045 | 48 | 322 | 0.0 | 1.7 | 0.00 | 0.14 | 0.00 | 88 | 1016.3 |
| 20260507062543 | 48 | 322 | 0.0 | 2.6 | 0.00 | 0.14 | 0.00 | 88 | 1016.2 |
| 20260507062040 | 48 | 322 | 0.9 | 2.6 | 0.00 | 0.14 | 0.00 | 88 | 1016.2 |
| 20260507061535 | 48 | 5 | 0.0 | 1.7 | 0.00 | 0.14 | 0.00 | 88 | 1016.1 |
| 20260507061030 | 48 | 30 | 0.0 | 2.6 | 0.00 | 0.14 | 0.00 | 88 | 1016.1 |
| 20260507060526 | 48 | 320 | 0.0 | 2.6 | 0.00 | 0.14 | 0.00 | 88 | 1016.1 |
| 20260507060016 | 48 | 320 | 0.0 | 0.9 | 0.00 | 0.14 | 0.00 | 88 | 1016.0 |
| 20260507055512 | 48 | 320 | 0.0 | 3.5 | 0.00 | 0.18 | 0.00 | 88 | 1016.0 |
| 20260507055013 | 48 | 320 | 0.0 | 3.5 | 0.00 | 0.18 | 0.00 | 88 | 1016.0 |
| 20260507054512 | 48 | 283 | 0.0 | 1.7 | 0.00 | 0.18 | 0.00 | 87 | 1015.9 |
| 20260507054003 | 48 | 283 | 0.9 | 2.6 | 0.00 | 0.18 | 0.00 | 87 | 1015.8 |
| 20260507053554 | 48 | 320 | 0.0 | 2.6 | 0.00 | 0.18 | 0.00 | 87 | 1015.8 |
| 20260507053055 | 47 | 315 | 0.0 | 2.6 | 0.00 | 0.18 | 0.00 | 87 | 1015.8 |
| 20260507052551 | 47 | 311 | 0.0 | 2.6 | 0.00 | 0.18 | 0.00 | 87 | 1015.8 |
| 20260507052041 | 47 | 311 | 0.0 | 2.6 | 0.00 | 0.18 | 0.00 | 86 | 1015.8 |
| 20260507051539 | 47 | 311 | 0.9 | 2.6 | 0.00 | 0.18 | 0.00 | 86 | 1015.7 |
| 20260507051041 | 47 | 317 | 0.9 | 2.6 | 0.00 | 0.18 | 0.00 | 86 | 1015.7 |
| 20260507050538 | 47 | 271 | 0.0 | 1.7 | 0.00 | 0.18 | 0.00 | 86 | 1015.6 |
| 20260507050035 | 47 | 271 | 0.0 | 0.0 | 0.00 | 0.18 | 0.00 | 86 | 1015.4 |
| 20260507045536 | 47 | 271 | 0.0 | 0.9 | 0.00 | 0.23 | 0.00 | 86 | 1015.3 |
| 20260507045033 | 47 | 271 | 0.0 | 0.0 | 0.00 | 0.23 | 0.00 | 86 | 1015.3 |
| 20260507044537 | 47 | 271 | 0.0 | 0.0 | 0.00 | 0.23 | 0.00 | 86 | 1015.2 |
| 20260507044030 | 47 | 271 | 0.0 | 0.0 | 0.00 | 0.23 | 0.00 | 86 | 1015.1 |
| 20260507043529 | 47 | 271 | 0.0 | 0.0 | 0.00 | 0.23 | 0.00 | 86 | 1015.0 |
| 20260507043027 | 47 | 271 | 0.0 | 0.0 | 0.00 | 0.23 | 0.00 | 86 | 1015.0 |
| 20260507042527 | 47 | 271 | 0.0 | 0.0 | 0.00 | 0.23 | 0.00 | 86 | 1015.0 |
| 20260507042024 | 47 | 271 | 0.0 | 0.0 | 0.00 | 0.23 | 0.00 | 86 | 1014.9 |
| 20260507041521 | 47 | 271 | 0.0 | 0.0 | 0.00 | 0.23 | 0.00 | 87 | 1014.9 |
| 20260507041020 | 47 | 271 | 0.0 | 0.0 | 0.00 | 0.23 | 0.00 | 86 | 1014.9 |
| 20260507040520 | 47 | 271 | 0.0 | 0.0 | 0.00 | 0.23 | 0.00 | 87 | 1014.8 |
| 20260507040018 | 47 | 271 | 0.0 | 0.0 | 0.00 | 0.23 | 0.00 | 87 | 1014.8 |
| 20260507035516 | 47 | 271 | 0.0 | 0.0 | 0.00 | 0.31 | 0.00 | 86 | 1014.8 |
| 20260507035015 | 47 | 271 | 0.0 | 0.0 | 0.00 | 0.31 | 0.00 | 86 | 1014.7 |
| 20260507034515 | 47 | 271 | 0.0 | 0.0 | 0.00 | 0.31 | 0.00 | 86 | 1014.7 |
| 20260507034014 | 47 | 271 | 0.0 | 0.0 | 0.00 | 0.31 | 0.00 | 86 | 1014.8 |
| 20260507033514 | 47 | 271 | 0.0 | 0.9 | 0.00 | 0.31 | 0.00 | 86 | 1014.7 |
| 20260507033019 | 47 | 271 | 0.0 | 0.9 | 0.00 | 0.31 | 0.00 | 86 | 1014.7 |
| 20260507032511 | 47 | 271 | 0.0 | 0.9 | 0.00 | 0.31 | 0.00 | 86 | 1014.7 |
| 20260507032013 | 47 | 271 | 0.0 | 0.0 | 0.00 | 0.31 | 0.00 | 86 | 1014.7 |
| 20260507031507 | 47 | 271 | 0.0 | 0.9 | 0.00 | 0.31 | 0.00 | 86 | 1014.6 |
| 20260507031008 | 47 | 271 | 0.0 | 0.0 | 0.00 | 0.31 | 0.00 | 86 | 1014.6 |
| 20260507030507 | 47 | 271 | 0.0 | 0.0 | 0.00 | 0.31 | 0.00 | 86 | 1014.6 |
| 20260507030007 | 47 | 271 | 0.0 | 0.0 | 0.00 | 0.31 | 0.00 | 86 | 1014.5 |
| 20260507025506 | 47 | 271 | 0.0 | 0.0 | 0.00 | 0.40 | 0.00 | 86 | 1014.5 |
| 20260507025002 | 47 | 271 | 0.0 | 0.0 | 0.00 | 0.40 | 0.00 | 86 | 1014.5 |
| 20260507024503 | 47 | 271 | 0.0 | 0.0 | 0.00 | 0.40 | 0.00 | 86 | 1014.5 |
| 20260507024002 | 47 | 271 | 0.0 | 0.0 | 0.00 | 0.40 | 0.00 | 86 | 1014.5 |
| 20260507023601 | 47 | 271 | 0.0 | 0.0 | 0.00 | 0.40 | 0.00 | 86 | 1014.5 |
| 20260507023107 | 47 | 271 | 0.0 | 0.0 | 0.00 | 0.40 | 0.00 | 86 | 1014.4 |
| 20260507022600 | 47 | 271 | 0.0 | 0.0 | 0.00 | 0.40 | 0.00 | 86 | 1014.4 |
| 20260507022503 | 47 | 271 | 0.0 | 0.0 | 0.00 | 0.40 | 0.00 | 86 | 1014.4 |
| 20260507022101 | 47 | 271 | 0.0 | 0.0 | 0.00 | 0.40 | 0.00 | 86 | 1014.3 |
| 20260507021602 | 47 | 271 | 0.0 | 0.0 | 0.00 | 0.40 | 0.00 | 86 | 1014.3 |
| 20260507021058 | 47 | 271 | 0.0 | 0.0 | 0.00 | 0.40 | 0.00 | 86 | 1014.3 |
| 20260507020559 | 47 | 271 | 0.0 | 0.0 | 0.00 | 0.40 | 0.00 | 86 | 1014.2 |
| 20260507020100 | 47 | 271 | 0.0 | 0.0 | 0.00 | 0.40 | 0.00 | 86 | 1014.3 |
| 20260507015552 | 47 | 271 | 0.0 | 1.7 | 0.00 | 0.45 | 0.00 | 86 | 1014.3 |
| 20260507015052 | 47 | 271 | 0.0 | 1.7 | 0.00 | 0.45 | 0.00 | 86 | 1014.3 |
| 20260507014600 | 47 | 22 | 0.0 | 0.0 | 0.00 | 0.45 | 0.00 | 86 | 1014.3 |
| 20260507014049 | 47 | 22 | 0.0 | 0.0 | 0.00 | 0.45 | 0.00 | 86 | 1014.3 |
| 20260507013549 | 47 | 22 | 0.0 | 0.0 | 0.00 | 0.45 | 0.00 | 87 | 1014.3 |
| 20260507013047 | 47 | 22 | 0.0 | 0.0 | 0.00 | 0.45 | 0.00 | 87 | 1014.3 |
| 20260507012546 | 47 | 22 | 0.0 | 0.0 | 0.00 | 0.45 | 0.00 | 87 | 1014.3 |
| 20260507012046 | 47 | 22 | 0.0 | 0.0 | 0.00 | 0.45 | 0.00 | 87 | 1014.3 |
| 20260507011544 | 47 | 22 | 0.0 | 0.0 | 0.00 | 0.45 | 0.00 | 87 | 1014.3 |
| 20260507011036 | 47 | 22 | 0.0 | 0.9 | 0.00 | 0.45 | 0.00 | 87 | 1014.2 |
| 20260507010536 | 47 | 22 | 0.0 | 1.7 | 0.00 | 0.45 | 0.00 | 87 | 1014.1 |
| 20260507010033 | 47 | 22 | 0.0 | 1.7 | 0.00 | 0.45 | 0.00 | 87 | 1014.1 |
| 20260507005525 | 47 | 22 | 0.0 | 0.9 | 0.00 | 0.52 | 0.00 | 87 | 1014.0 |
| 20260507005024 | 47 | 22 | 0.0 | 0.0 | 0.00 | 0.52 | 0.00 | 87 | 1014.0 |
| 20260507004520 | 47 | 22 | 0.0 | 0.0 | 0.00 | 0.52 | 0.00 | 87 | 1014.1 |
| 20260507004018 | 47 | 22 | 0.0 | 0.0 | 0.00 | 0.52 | 0.00 | 87 | 1014.1 |
| 20260507003507 | 47 | 22 | 0.0 | 0.0 | 0.00 | 0.52 | 0.00 | 87 | 1014.1 |
| 20260507003002 | 47 | 22 | 0.0 | 0.0 | 0.00 | 0.52 | 0.00 | 87 | 1014.1 |
| 20260507002503 | 47 | 22 | 0.0 | 0.0 | 0.00 | 0.52 | 0.00 | 87 | 1014.1 |
| 20260507002002 | 47 | 22 | 0.0 | 0.0 | 0.00 | 0.52 | 0.00 | 87 | 1014.0 |
| 20260507001501 | 47 | 22 | 0.0 | 0.0 | 0.00 | 0.52 | 0.00 | 87 | 1014.0 |
| 20260507001002 | 47 | 22 | 0.0 | 0.0 | 0.00 | 0.52 | 0.00 | 87 | 1014.0 |
| 20260507000501 | 47 | 22 | 0.0 | 0.0 | 0.00 | 0.52 | 0.00 | 87 | 1014.0 |
| 20260507000002 | 47 | 22 | 0.0 | 0.0 | 0.00 | 0.56 | 0.00 | 87 | 1014.0 |
| 20260506235503 | 47 | 22 | 0.0 | 0.0 | 0.00 | 0.56 | 0.00 | 87 | 1013.9 |
| 20260506235059 | 47 | 22 | 0.0 | 0.0 | 0.00 | 0.56 | 0.00 | 87 | 1013.9 |
| 20260506234548 | 47 | 22 | 0.0 | 1.7 | 0.00 | 0.56 | 0.00 | 87 | 1013.9 |
| 20260506234041 | 47 | 22 | 0.0 | 1.7 | 0.00 | 0.56 | 0.00 | 87 | 1013.8 |
| 20260506233530 | 47 | 59 | 0.0 | 0.9 | 0.00 | 0.56 | 0.00 | 87 | 1013.9 |
| 20260506233034 | 47 | 59 | 0.0 | 0.9 | 0.00 | 0.56 | 0.00 | 87 | 1013.9 |
| 20260506232530 | 47 | 59 | 0.0 | 0.0 | 0.00 | 0.56 | 0.00 | 87 | 1013.8 |
| 20260506232030 | 47 | 59 | 0.0 | 0.9 | 0.00 | 0.56 | 0.00 | 87 | 1013.9 |
| 20260506231531 | 47 | 59 | 0.0 | 0.9 | 0.00 | 0.56 | 0.00 | 87 | 1013.8 |
| 20260506231031 | 47 | 59 | 0.0 | 0.9 | 0.00 | 0.56 | 0.00 | 87 | 1013.8 |
| 20260506230531 | 47 | 60 | 0.0 | 1.7 | 0.00 | 0.56 | 0.00 | 87 | 1013.8 |
| 20260506230031 | 47 | 60 | 0.0 | 1.7 | 0.00 | 0.56 | 0.00 | 87 | 1013.7 |
| 20260506225531 | 47 | 331 | 0.0 | 1.7 | 0.00 | 0.61 | 0.00 | 87 | 1013.6 |
| 20260506225022 | 47 | 324 | 0.0 | 2.6 | 0.00 | 0.61 | 0.00 | 87 | 1013.5 |
| 20260506224516 | 47 | 298 | 0.0 | 1.7 | 0.00 | 0.61 | 0.00 | 87 | 1013.5 |
| 20260506224006 | 47 | 86 | 0.0 | 0.9 | 0.00 | 0.61 | 0.00 | 87 | 1013.5 |
| 20260506223502 | 48 | 344 | 0.0 | 1.7 | 0.00 | 0.61 | 0.00 | 87 | 1013.5 |
| 20260506223002 | 48 | 343 | 0.0 | 1.7 | 0.00 | 0.61 | 0.00 | 87 | 1013.3 |
| 20260506222503 | 48 | 71 | 0.0 | 1.7 | 0.00 | 0.61 | 0.00 | 87 | 1013.3 |
| 20260506222003 | 48 | 317 | 0.0 | 1.7 | 0.00 | 0.61 | 0.00 | 87 | 1013.3 |
| 20260506221502 | 48 | 317 | 0.0 | 2.6 | 0.00 | 0.61 | 0.00 | 87 | 1013.1 |
| 20260506221004 | 48 | 317 | 0.0 | 2.6 | 0.00 | 0.61 | 0.00 | 87 | 1013.1 |
| 20260506220502 | 48 | 348 | 0.0 | 2.6 | 0.00 | 0.61 | 0.00 | 87 | 1013.0 |
| 20260506220007 | 48 | 338 | 0.0 | 2.6 | 0.00 | 0.69 | 0.61 | 87 | 1013.0 |
| 20260506215502 | 48 | 349 | 0.0 | 3.5 | 0.00 | 0.69 | 0.61 | 87 | 1013.0 |
| 20260506215002 | 48 | 325 | 0.9 | 3.5 | 0.00 | 0.69 | 0.61 | 87 | 1013.0 |
| 20260506214502 | 48 | 338 | 0.0 | 2.6 | 0.00 | 0.69 | 0.61 | 87 | 1012.9 |
| 20260506214004 | 48 | 284 | 0.0 | 2.6 | 0.00 | 0.69 | 0.61 | 87 | 1012.9 |
| 20260506213559 | 48 | 312 | 0.0 | 5.2 | 0.00 | 0.69 | 0.61 | 87 | 1012.9 |
| 20260506213111 | 48 | 329 | 0.9 | 5.2 | 0.00 | 0.69 | 0.61 | 87 | 1012.8 |
| 20260506212551 | 48 | 294 | 0.0 | 4.3 | 0.00 | 0.69 | 0.61 | 88 | 1012.8 |
| 20260506212044 | 48 | 308 | 0.0 | 4.3 | 0.00 | 0.69 | 0.61 | 87 | 1012.8 |
| 20260506211543 | 48 | 325 | 0.0 | 3.5 | 0.00 | 0.69 | 0.61 | 88 | 1012.8 |
| 20260506211042 | 48 | 329 | 0.0 | 2.6 | 0.00 | 0.69 | 0.61 | 88 | 1012.7 |
| 20260506210534 | 48 | 327 | 0.0 | 5.2 | 0.00 | 0.69 | 0.61 | 88 | 1012.7 |
| 20260506210032 | 48 | 319 | 0.0 | 5.2 | 0.00 | 0.69 | 0.61 | 88 | 1012.8 |
| 20260506205533 | 48 | 325 | 0.0 | 2.6 | 0.00 | 0.73 | 0.61 | 88 | 1012.8 |
| 20260506205032 | 48 | 318 | 0.0 | 2.6 | 0.00 | 0.73 | 0.61 | 88 | 1012.8 |
| 20260506204530 | 48 | 344 | 0.0 | 1.7 | 0.00 | 0.73 | 0.61 | 88 | 1012.8 |
| 20260506204033 | 48 | 342 | 0.0 | 1.7 | 0.00 | 0.73 | 0.61 | 88 | 1012.7 |
| 20260506203530 | 49 | 340 | 0.0 | 2.6 | 0.00 | 0.73 | 0.61 | 88 | 1012.7 |
| 20260506203030 | 49 | 300 | 0.0 | 2.6 | 0.00 | 0.73 | 0.61 | 88 | 1012.7 |
| 20260506202530 | 49 | 275 | 0.0 | 4.3 | 0.00 | 0.73 | 0.61 | 88 | 1012.7 |
| 20260506202030 | 49 | 238 | 0.0 | 4.3 | 0.00 | 0.73 | 0.61 | 88 | 1012.6 |
| 20260506201528 | 49 | 17 | 0.0 | 1.7 | 0.00 | 0.73 | 0.61 | 88 | 1012.6 |
| 20260506201023 | 49 | 30 | 0.0 | 0.9 | 0.00 | 0.73 | 0.61 | 88 | 1012.6 |
| 20260506200515 | 49 | 28 | 0.0 | 0.9 | 0.00 | 0.73 | 0.61 | 88 | 1012.6 |
| 20260506200005 | 49 | 15 | 0.0 | 0.9 | 0.00 | 0.80 | 0.61 | 88 | 1012.5 |
| 20260506195504 | 49 | 15 | 0.0 | 1.7 | 0.00 | 0.80 | 0.61 | 88 | 1012.5 |
| 20260506195002 | 49 | 311 | 0.0 | 2.6 | 0.00 | 0.80 | 0.61 | 88 | 1012.5 |
| 20260506194502 | 49 | 311 | 0.0 | 2.6 | 0.00 | 0.80 | 0.61 | 88 | 1012.5 |
| 20260506194003 | 49 | 336 | 0.0 | 2.6 | 0.00 | 0.80 | 0.61 | 88 | 1012.4 |
| 20260506193600 | 49 | 103 | 0.0 | 1.7 | 0.00 | 0.80 | 0.61 | 88 | 1012.3 |
| 20260506193104 | 49 | 336 | 0.0 | 1.7 | 0.00 | 0.80 | 0.61 | 88 | 1012.2 |
| 20260506192555 | 49 | 327 | 0.0 | 2.6 | 0.00 | 0.80 | 0.61 | 88 | 1012.2 |
| 20260506192054 | 49 | 327 | 0.0 | 2.6 | 0.00 | 0.80 | 0.61 | 88 | 1012.2 |
| 20260506191546 | 49 | 327 | 0.0 | 2.6 | 0.00 | 0.80 | 0.61 | 88 | 1012.1 |
| 20260506191046 | 49 | 53 | 0.0 | 1.7 | 0.00 | 0.80 | 0.61 | 88 | 1012.1 |
| 20260506190537 | 49 | 51 | 0.0 | 3.5 | 0.00 | 0.80 | 0.61 | 88 | 1012.0 |
| 20260506190035 | 49 | 334 | 0.0 | 3.5 | 0.00 | 0.80 | 0.61 | 88 | 1012.0 |
| 20260506185533 | 49 | 334 | 0.0 | 2.6 | 0.00 | 0.83 | 0.61 | 88 | 1012.0 |
| 20260506185031 | 49 | 69 | 0.0 | 1.7 | 0.00 | 0.83 | 0.61 | 88 | 1011.9 |
| 20260506184531 | 49 | 296 | 0.0 | 3.5 | 0.00 | 0.83 | 0.61 | 88 | 1011.9 |
| 20260506184032 | 49 | 305 | 0.9 | 3.5 | 0.00 | 0.83 | 0.61 | 88 | 1011.9 |
| 20260506183529 | 49 | 323 | 0.0 | 3.5 | 0.00 | 0.83 | 0.61 | 88 | 1011.8 |
| 20260506183029 | 50 | 44 | 0.0 | 2.6 | 0.00 | 0.83 | 0.61 | 88 | 1011.8 |
| 20260506182527 | 50 | 141 | 0.0 | 0.9 | 0.00 | 0.83 | 0.61 | 88 | 1011.8 |
| 20260506182027 | 50 | 138 | 0.0 | 2.6 | 0.00 | 0.83 | 0.61 | 88 | 1011.7 |
| 20260506181528 | 50 | 138 | 0.0 | 2.6 | 0.00 | 0.83 | 0.61 | 88 | 1011.5 |
| 20260506181027 | 50 | 53 | 0.0 | 1.7 | 0.00 | 0.83 | 0.61 | 87 | 1011.5 |
| 20260506180525 | 50 | 69 | 0.0 | 2.6 | 0.00 | 0.83 | 0.61 | 87 | 1011.4 |
| 20260506180025 | 50 | 311 | 0.0 | 2.6 | 0.00 | 0.83 | 0.61 | 87 | 1011.3 |
| 20260506175525 | 50 | 323 | 0.0 | 3.5 | 0.00 | 0.84 | 0.61 | 87 | 1011.3 |
| 20260506175027 | 50 | 63 | 0.9 | 3.5 | 0.00 | 0.84 | 0.61 | 87 | 1011.2 |
| 20260506174525 | 50 | 350 | 0.0 | 2.6 | 0.00 | 0.84 | 0.61 | 87 | 1011.1 |
| 20260506174024 | 50 | 13 | 0.0 | 2.6 | 0.00 | 0.84 | 0.61 | 87 | 1011.1 |
| 20260506173523 | 50 | 302 | 0.0 | 2.6 | 0.00 | 0.84 | 0.61 | 87 | 1011.1 |
| 20260506173016 | 50 | 15 | 0.0 | 1.7 | 0.00 | 0.84 | 0.61 | 87 | 1011.0 |
| 20260506172516 | 50 | 40 | 0.0 | 1.7 | 0.00 | 0.84 | 0.61 | 87 | 1011.0 |
| 20260506172012 | 50 | 300 | 0.0 | 0.9 | 0.00 | 0.84 | 0.61 | 88 | 1010.9 |
| 20260506171510 | 50 | 320 | 0.0 | 0.9 | 0.00 | 0.84 | 0.61 | 88 | 1010.9 |
| 20260506171007 | 50 | 320 | 0.0 | 0.9 | 0.00 | 0.84 | 0.61 | 88 | 1010.9 |
| 20260506170507 | 50 | 320 | 0.0 | 0.9 | 0.00 | 0.84 | 0.61 | 88 | 1010.9 |
| 20260506170007 | 50 | 320 | 0.0 | 0.9 | 0.00 | 0.84 | 0.61 | 88 | 1010.8 |
| 20260506165508 | 50 | 320 | 0.0 | 0.9 | 0.00 | 0.84 | 0.61 | 88 | 1010.8 |
| 20260506165009 | 50 | 320 | 0.0 | 0.9 | 0.00 | 0.84 | 0.61 | 88 | 1010.8 |
| 20260506164508 | 50 | 320 | 0.0 | 1.7 | 0.00 | 0.84 | 0.61 | 88 | 1010.8 |
| 20260506164008 | 50 | 320 | 0.0 | 4.3 | 0.00 | 0.84 | 0.61 | 88 | 1010.8 |
| 20260506163507 | 50 | 311 | 0.0 | 4.3 | 0.00 | 0.84 | 0.61 | 88 | 1010.7 |
| 20260506163017 | 50 | 34 | 0.0 | 0.9 | 0.00 | 0.84 | 0.61 | 88 | 1010.7 |
| 20260506162504 | 50 | 70 | 0.0 | 1.7 | 0.00 | 0.84 | 0.61 | 88 | 1010.7 |
| 20260506162003 | 51 | 70 | 0.0 | 1.7 | 0.00 | 0.84 | 0.61 | 88 | 1010.7 |
| 20260506161504 | 51 | 313 | 0.0 | 1.7 | 0.00 | 0.84 | 0.61 | 88 | 1010.7 |
| 20260506161004 | 51 | 104 | 0.0 | 2.6 | 0.00 | 0.84 | 0.61 | 88 | 1010.7 |
| 20260506160507 | 51 | 326 | 0.0 | 2.6 | 0.00 | 0.84 | 0.61 | 88 | 1010.7 |
| 20260506160007 | 51 | 331 | 0.0 | 1.7 | 0.00 | 0.84 | 0.61 | 88 | 1010.7 |
| 20260506155502 | 51 | 74 | 0.0 | 3.5 | 0.00 | 0.84 | 0.61 | 88 | 1010.6 |
| 20260506155001 | 51 | 355 | 0.0 | 3.5 | 0.00 | 0.84 | 0.61 | 88 | 1010.6 |
| 20260506154502 | 50 | 22 | 0.0 | 4.3 | 0.00 | 0.84 | 0.61 | 88 | 1010.6 |
| 20260506154005 | 50 | 76 | 1.7 | 4.3 | 0.00 | 0.84 | 0.61 | 88 | 1010.6 |
| 20260506153501 | 50 | 83 | 0.0 | 6.1 | 0.00 | 0.84 | 0.61 | 88 | 1010.5 |
| 20260506153002 | 50 | 96 | 0.9 | 7.0 | 0.00 | 0.84 | 0.61 | 88 | 1010.5 |
| 20260506152501 | 50 | 275 | 1.7 | 7.0 | 0.00 | 0.84 | 0.61 | 88 | 1010.5 |
| 20260506152001 | 50 | 59 | 1.7 | 7.0 | 0.00 | 0.84 | 0.61 | 88 | 1010.5 |
| 20260506151502 | 51 | 76 | 0.9 | 5.2 | 0.00 | 0.84 | 0.61 | 88 | 1010.4 |
| 20260506151001 | 51 | 304 | 1.7 | 7.8 | 0.00 | 0.84 | 0.61 | 88 | 1010.4 |
| 20260506150502 | 50 | 80 | 0.9 | 7.8 | 0.00 | 0.84 | 0.61 | 88 | 1010.4 |
| 20260506150002 | 50 | 9 | 1.7 | 5.2 | 0.00 | 0.84 | 0.61 | 88 | 1010.4 |
| 20260506145505 | 51 | 336 | 0.9 | 3.5 | 0.00 | 0.84 | 0.61 | 88 | 1010.4 |
| 20260506145101 | 50 | 323 | 0.9 | 3.5 | 0.00 | 0.84 | 0.61 | 88 | 1010.4 |
| 20260506144555 | 50 | 341 | 0.9 | 6.1 | 0.00 | 0.84 | 0.61 | 88 | 1010.4 |
| 20260506144051 | 50 | 302 | 0.9 | 6.1 | 0.00 | 0.84 | 0.61 | 88 | 1010.4 |
| 20260506143550 | 50 | 321 | 0.9 | 5.2 | 0.00 | 0.84 | 0.61 | 88 | 1010.4 |
| 20260506143053 | 50 | 302 | 0.9 | 6.1 | 0.00 | 0.84 | 0.61 | 87 | 1010.4 |
| 20260506142540 | 50 | 333 | 0.9 | 4.3 | 0.01 | 0.84 | 0.61 | 87 | 1010.3 |
| 20260506142034 | 50 | 31 | 0.0 | 4.3 | 0.01 | 0.84 | 0.61 | 87 | 1010.4 |
| 20260506141535 | 50 | 323 | 0.9 | 4.3 | 0.01 | 0.84 | 0.61 | 87 | 1010.4 |
| 20260506141031 | 50 | 303 | 0.9 | 4.3 | 0.01 | 0.84 | 0.61 | 87 | 1010.5 |
| 20260506140525 | 50 | 11 | 0.0 | 5.2 | 0.01 | 0.84 | 0.61 | 86 | 1010.5 |
| 20260506140018 | 50 | 323 | 0.0 | 7.0 | 0.01 | 0.84 | 0.61 | 86 | 1010.5 |
| 20260506135510 | 50 | 83 | 0.9 | 7.0 | 0.01 | 0.84 | 0.61 | 86 | 1010.5 |
| 20260506135013 | 50 | 216 | 0.0 | 3.5 | 0.01 | 0.84 | 0.61 | 86 | 1010.4 |
| 20260506134507 | 50 | 329 | 0.9 | 7.0 | 0.01 | 0.84 | 0.61 | 86 | 1010.4 |
| 20260506134004 | 49 | 351 | 0.0 | 7.0 | 0.01 | 0.84 | 0.61 | 86 | 1010.5 |
| 20260506133501 | 49 | 317 | 0.9 | 5.2 | 0.01 | 0.84 | 0.61 | 86 | 1010.4 |
| 20260506133002 | 49 | 266 | 0.9 | 7.0 | 0.01 | 0.84 | 0.61 | 86 | 1010.5 |
| 20260506132609 | 49 | 267 | 0.9 | 7.0 | 0.00 | 0.83 | 0.61 | 86 | 1010.4 |
| 20260506132057 | 49 | 340 | 0.0 | 7.0 | 0.00 | 0.83 | 0.61 | 86 | 1010.5 |
| 20260506131553 | 49 | 299 | 1.7 | 5.2 | 0.00 | 0.83 | 0.61 | 86 | 1010.4 |
| 20260506131044 | 49 | 336 | 0.0 | 5.2 | 0.00 | 0.83 | 0.61 | 86 | 1010.3 |
| 20260506130544 | 50 | 294 | 1.7 | 6.1 | 0.00 | 0.83 | 0.61 | 86 | 1010.3 |
| 20260506130041 | 50 | 315 | 0.9 | 4.3 | 0.00 | 0.83 | 0.61 | 86 | 1010.2 |
| 20260506125542 | 50 | 66 | 0.9 | 5.2 | 0.00 | 0.83 | 0.61 | 86 | 1010.2 |
| 20260506125033 | 51 | 345 | 0.0 | 3.5 | 0.00 | 0.83 | 0.61 | 85 | 1010.1 |
| 20260506124529 | 51 | 72 | 0.0 | 3.5 | 0.00 | 0.83 | 0.61 | 85 | 1010.0 |
| 20260506124027 | 51 | 235 | 1.7 | 4.3 | 0.00 | 0.83 | 0.61 | 85 | 1010.0 |
| 20260506123525 | 51 | 315 | 0.9 | 7.0 | 0.01 | 0.83 | 0.61 | 85 | 1009.9 |
| 20260506123024 | 50 | 313 | 2.6 | 7.0 | 0.01 | 0.83 | 0.61 | 85 | 1009.9 |
| 20260506122523 | 51 | 342 | 1.7 | 7.8 | 0.01 | 0.83 | 0.61 | 85 | 1009.9 |
| 20260506122017 | 51 | 338 | 2.6 | 7.8 | 0.02 | 0.83 | 0.61 | 85 | 1009.9 |
| 20260506121511 | 50 | 323 | 0.9 | 6.1 | 0.02 | 0.83 | 0.61 | 85 | 1009.9 |
| 20260506121005 | 50 | 69 | 0.9 | 6.1 | 0.02 | 0.83 | 0.61 | 85 | 1009.8 |
| 20260506120503 | 51 | 326 | 2.6 | 7.8 | 0.02 | 0.83 | 0.61 | 85 | 1009.8 |
| 20260506120002 | 51 | 281 | 0.9 | 7.8 | 0.02 | 0.83 | 0.61 | 85 | 1009.7 |
| 20260506115506 | 51 | 325 | 1.7 | 7.8 | 0.02 | 0.83 | 0.61 | 84 | 1009.5 |
| 20260506115002 | 51 | 336 | 0.9 | 5.2 | 0.02 | 0.83 | 0.61 | 84 | 1009.5 |
| 20260506114504 | 51 | 304 | 2.6 | 5.2 | 0.02 | 0.83 | 0.61 | 85 | 1009.5 |
| 20260506114003 | 51 | 313 | 0.9 | 4.3 | 0.01 | 0.83 | 0.60 | 85 | 1009.5 |
| 20260506113502 | 51 | 329 | 0.0 | 7.0 | 0.01 | 0.83 | 0.60 | 84 | 1009.6 |
| 20260506113004 | 51 | 307 | 1.7 | 7.0 | 0.01 | 0.83 | 0.60 | 84 | 1009.5 |
| 20260506112503 | 51 | 355 | 1.7 | 7.0 | 0.01 | 0.83 | 0.60 | 84 | 1009.5 |
| 20260506112002 | 51 | 331 | 1.7 | 7.8 | 0.00 | 0.82 | 0.59 | 83 | 1009.4 |
| 20260506111559 | 51 | 333 | 2.6 | 7.8 | 0.00 | 0.82 | 0.59 | 84 | 1009.4 |
| 20260506111059 | 51 | 311 | 2.6 | 7.0 | 0.01 | 0.82 | 0.59 | 83 | 1009.4 |
| 20260506110555 | 51 | 317 | 1.7 | 7.8 | 0.01 | 0.82 | 0.59 | 82 | 1009.4 |
| 20260506110056 | 51 | 331 | 1.7 | 7.8 | 0.01 | 0.82 | 0.59 | 82 | 1009.4 |
| 20260506105548 | 51 | 297 | 1.7 | 4.3 | 0.02 | 0.82 | 0.59 | 81 | 1009.4 |
| 20260506105042 | 51 | 44 | 0.9 | 4.3 | 0.02 | 0.82 | 0.59 | 80 | 1009.4 |
| 20260506104534 | 51 | 82 | 0.0 | 5.2 | 0.02 | 0.82 | 0.59 | 81 | 1009.4 |
| 20260506104032 | 51 | 321 | 0.9 | 5.2 | 0.02 | 0.82 | 0.59 | 80 | 1009.4 |
| 20260506103527 | 51 | 346 | 0.9 | 5.2 | 0.02 | 0.82 | 0.59 | 80 | 1009.5 |
| 20260506103027 | 51 | 89 | 1.7 | 7.0 | 0.02 | 0.82 | 0.59 | 79 | 1009.4 |
| 20260506102522 | 51 | 308 | 1.7 | 4.3 | 0.02 | 0.82 | 0.59 | 79 | 1009.3 |
| 20260506102010 | 50 | 306 | 0.0 | 4.3 | 0.02 | 0.82 | 0.59 | 79 | 1009.3 |
| 20260506101503 | 50 | 310 | 1.7 | 4.3 | 0.03 | 0.82 | 0.59 | 79 | 1009.3 |
| 20260506101019 | 50 | 312 | 0.9 | 4.3 | 0.02 | 0.81 | 0.57 | 79 | 1009.3 |
| 20260506100512 | 50 | 355 | 0.0 | 4.3 | 0.02 | 0.81 | 0.57 | 79 | 1009.2 |
| 20260506100001 | 50 | 311 | 0.0 | 4.3 | 0.02 | 0.81 | 0.57 | 79 | 1009.2 |
| 20260506095559 | 50 | 311 | 0.0 | 4.3 | 0.02 | 0.80 | 0.56 | 79 | 1009.1 |
| 20260506095045 | 50 | 145 | 0.9 | 3.5 | 0.02 | 0.80 | 0.56 | 79 | 1009.2 |
| 20260506094552 | 50 | 39 | 0.9 | 3.5 | 0.02 | 0.80 | 0.56 | 79 | 1009.2 |
| 20260506094032 | 50 | 316 | 0.9 | 3.5 | 0.02 | 0.80 | 0.56 | 79 | 1009.1 |
| 20260506093532 | 50 | 315 | 0.0 | 4.3 | 0.03 | 0.80 | 0.56 | 79 | 1009.1 |
| 20260506093030 | 50 | 319 | 0.9 | 4.3 | 0.02 | 0.80 | 0.56 | 79 | 1009.0 |
| 20260506092525 | 50 | 122 | 0.9 | 3.5 | 0.02 | 0.80 | 0.56 | 79 | 1009.0 |
| 20260506092026 | 49 | 318 | 0.0 | 3.5 | 0.03 | 0.80 | 0.56 | 79 | 1009.0 |
| 20260506091524 | 49 | 332 | 0.9 | 3.5 | 0.03 | 0.79 | 0.56 | 79 | 1009.0 |
| 20260506091017 | 49 | 315 | 0.0 | 3.5 | 0.03 | 0.79 | 0.56 | 79 | 1009.0 |
| 20260506090515 | 49 | 315 | 0.0 | 3.5 | 0.03 | 0.79 | 0.56 | 79 | 1009.0 |
| 20260506090009 | 49 | 315 | 0.9 | 3.5 | 0.03 | 0.79 | 0.56 | 79 | 1008.9 |
| 20260506085502 | 49 | 289 | 0.0 | 4.3 | 0.03 | 0.78 | 0.55 | 79 | 1008.9 |
| 20260506085003 | 49 | 290 | 0.9 | 4.3 | 0.03 | 0.78 | 0.55 | 79 | 1008.9 |
| 20260506084501 | 49 | 317 | 0.0 | 3.5 | 0.04 | 0.78 | 0.55 | 79 | 1008.9 |
| 20260506084058 | 49 | 317 | 0.0 | 5.2 | 0.04 | 0.78 | 0.55 | 79 | 1008.9 |